Location: Ferma
(41.9500°N, 44.5167°E)
Time: 04:35:06
(UTC+00:00)

NOSS 2-3 (D) - Pass Details

Date: 03 June 2022
Orbit: 536 x 1674 km, 63.3° (Epoch: 02 June)

Event Time Altitude Azimuth Distance (km) Brightness Sun altitude
Rises 18:22:43 0° 325° (NW) 3,481 9.3 -16.1°
Reaches altitude 10° 18:24:57 10° 327° (NNW) 2,680 8.2 -16.3°
Maximum altitude 18:31:23 76° 54° (NE) 1,199 4.9 -17.1°
Enters shadow 18:36:40 25° 137° (SE) 2,422 5.9 -17.6°
